Location: Knowlton
(51.2333°N, 1.2667°E)
Time: 02:02:54
(UTC+00:00)

First-Move - Visible Passes

Search period start: 06 December 2021 00:00
Search period end: 16 December 2021 00:00
Orbit: 575 x 664 km, 97.6° (Epoch: 05 December)

Date Brightness Start Highest point End Pass type
(mag) Time Alt. Az. Time Alt. Az. Time Alt. Az.
06 Dec ? 04:21:59 10° NNE 04:23:32 21° NNE 04:23:32 21° NNE visible
06 Dec ? 05:58:56 10° NNW 06:00:41 17° NNW 06:00:41 17° NNW visible
06 Dec ? 17:00:46 10° WSW 17:02:35 12° W 17:04:25 10° WNW visible
07 Dec ? 04:39:13 10° NNE 04:40:49 22° NNE 04:40:49 22° NNE visible
07 Dec ? 06:16:42 10° NNW 06:17:57 14° NW 06:17:57 14° NW visible
08 Dec ? 04:56:32 10° N 04:58:05 21° N 04:58:05 21° N visible
08 Dec ? 06:34:55 10° NW 06:35:14 11° NW 06:35:14 11° NW visible
09 Dec ? 03:38:03 10° NE 03:38:13 11° NE 03:38:13 11° NE visible
09 Dec ? 05:13:53 10° N 05:15:22 20° N 05:15:22 20° N visible
10 Dec ? 03:55:03 10° NNE 03:55:30 12° NNE 03:55:30 12° NNE visible
10 Dec ? 05:31:19 10° N 05:32:39 18° NNW 05:32:39 18° NNW visible
10 Dec ? 16:31:42 10° SW 16:35:05 22° W 16:38:32 10° NW visible
11 Dec ? 04:12:08 10° NNE 04:12:48 14° NNE 04:12:48 14° NNE visible
11 Dec ? 05:48:50 10° N 05:49:57 15° NNW 05:49:57 15° NNW visible
11 Dec ? 16:49:55 10° SW 16:52:32 15° W 16:55:11 10° NW visible
12 Dec ? 04:29:19 10° NNE 04:30:06 15° NNE 04:30:06 15° NNE visible
12 Dec ? 06:06:29 10° NNW 06:07:15 13° NNW 06:07:15 13° NNW visible
12 Dec ? 17:09:03 10° W 17:10:01 11° W 17:10:59 10° WNW visible
13 Dec ? 04:46:34 10° N 04:47:24 15° N 04:47:24 15° N visible
13 Dec ? 06:24:22 10° NNW 06:24:33 10° NNW 06:24:33 10° NNW visible
14 Dec ? 05:03:53 10° N 05:04:42 15° N 05:04:42 15° N visible
15 Dec ? 05:21:16 10° N 05:22:01 14° N 05:22:01 14° N visible
15 Dec ? 16:21:16 10° SSW 16:25:01 26° W 16:28:51 10° NW visible
